Regional Weather Roundup
Issued by NWS

Home | Current Version | Previous Version | Graphics & Text | Print | Product List | Glossary On
Versions: 1 2 3 4 5 6 7 8 9 10 11 12 13 14 15 16 17 18 19 20 21 22 23 24 25 26 27 28 29 30 31 32 33 34 35 36 37 38 39 40 41 42 43 44 45 46 47 48 49 50
000
ASUS43 KMKX 251525
RWRWI

WISCONSIN REGIONAL WEATHER ROUNDUP
NATIONAL WEATHER SERVICE MILWAUKEE/SULLIVAN WI
1000 AM CDT SAT OCT 25 2014

NOTE: "FAIR" INDICATES FEW OR NO CLOUDS BELOW 12,000 FEET WITH NO
SIGNIFICANT WEATHER AND/OR OBSTRUCTIONS TO VISIBILITY.

WIZ001-002-006>008-014>016-023>028-251600-
NORTHWEST WISCONSIN

CITY           SKY/WX    TMP DP  RH WIND       PRES   REMARKS
SUPERIOR ARPT  SUNNY     52  34  49 W7G20     29.94S
ASHLAND        SUNNY     53  34  48 W13G24    29.91R
HAYWARD        SUNNY     51  32  48 NW8G22    29.94R
SIREN          SUNNY     51  34  52 NW10      30.00R
CUMBERLAND     SUNNY     50  32  50 NW14G22   29.98R
RICE LAKE      SUNNY     52  35  51 W9        29.99R
CHETEK         SUNNY     53  37  54 NW8G17    29.96S
LADYSMITH      SUNNY     53  33  46 NW18      29.95R
EAU CLAIRE     SUNNY     54  36  50 NW15      29.98R
MENOMONIE      SUNNY     55  34  46 NW15G22   29.99R
NEW RICHMOND   SUNNY     53  33  47 NW17G24   30.02R
OSCEOLA        SUNNY     53  34  49 NW13      30.05R
$$

WIZ003>005-009-010-017-018-251600-
NORTH CENTRAL WISCONSIN

CITY           SKY/WX    TMP DP  RH WIND       PRES   REMARKS
MANITOWISH WTR SUNNY     49  34  55 W16G26    29.86R
ARBOR VITAE    SUNNY     52  37  56 NW10G21   29.86R
WOODRUFF       SUNNY     52  37  56 NW10G21   29.86R
RHINELANDER    SUNNY     51  33  50 NW16G29   29.86R
EAGLE RIVER    SUNNY     51  33  49 NW15G25   29.83R
LAND O LAKES   SUNNY     51  33  49 NW20G28   29.83S
PHILLIPS       SUNNY     50  34  53 NW14G23   29.90R
TOMAHAWK       SUNNY     51  33  50 NW20G29   29.89R
MEDFORD        SUNNY     51  37  58 NW14G25   29.92R
MERRILL        SUNNY     53  34  48 NW14G26   29.88R
$$

WIZ029-030-035-036-043>047-251600-
CENTRAL WISCONSIN

CITY           SKY/WX    TMP DP  RH WIND       PRES   REMARKS
WAUSAU         SUNNY     54  36  50 W18G25    29.88R
MOSINEE        SUNNY     52  37  58 NW18G26   29.90R
MARSHFIELD     SUNNY     54  38  54 NW17G25   29.92R
STEVENS POINT  SUNNY     53  35  50 NW12G23   29.90S
WAUPACA        SUNNY     59  38  46 W12       29.89S
WAUTOMA        CLOUDY    58  41  53 W14G21    29.92S
WISC RAPIDS    SUNNY     56  38  50 NW16G23   29.94R
CAMP DOUGLAS   SUNNY     57  43  58 W12       29.97R
$$

WIZ011>013-019>022-031-037>040-048>050-251600-
NORTHEAST WISCONSIN

CITY           SKY/WX    TMP DP  RH WIND       PRES   REMARKS
ANTIGO         SUNNY     51  36  55 NW17G23   29.86R
SHAWANO        SUNNY     57  39  50 W13G18    29.85S
OCONTO         SUNNY     56  42  57 W13G23    29.80F
STURGEON BAY   SUNNY     57  39  51 W14G22    29.80F
GREEN BAY      SUNNY     58  43  57 W16       29.85R
MANITOWOC      SUNNY     59  44  57 W16G22    29.84F
APPLETON       SUNNY     55  46  71 W14       29.88S
CLINTONVILLE   SUNNY     55  37  50 W15G22    29.86R
OSHKOSH        SUNNY     57  44  62 W10G21    29.89R
$$

WIZ032>034-041-042-053>061-251600-
SOUTHWEST WISCONSIN

CITY           SKY/WX    TMP DP  RH WIND       PRES   REMARKS
LA CROSSE      SUNNY     59  42  53 NW12      30.00R
SPARTA         SUNNY     58  33  38 NW13G18   29.99R
VIROQUA        SUNNY     56  42  59 NW9       30.00R
BOSCOBEL       SUNNY     59  47  64 W3        30.01R
PRAIRIE DU CHI SUNNY     57  44  62 NW3       30.02R
PLATTEVILLE    SUNNY     58  48  67 W9        30.01S
$$

WIZ056-057-062-063-064-067-068-251600-
SOUTH CENTRAL WISCONSIN

CITY           SKY/WX    TMP DP  RH WIND       PRES   REMARKS
REEDSBURG      SUNNY     57  42  56 NW7G18    29.97R
BARABOO/DELLS  SUNNY     58  40  50 NW6       29.96R
LONE ROCK      SUNNY     62  49  62 W6        29.99R
MINERAL POINT  SUNNY     59  45  58 W8        29.99S
MADISON        MOSUNNY   60  48  64 W8        29.97R
MIDDLETON      SUNNY     61  47  59 W14       29.98R
WATERTOWN      SUNNY     59  45  58 W12       29.94R
MONROE         SUNNY     59  50  72 NW14      29.98R
JANESVILLE     NOT AVBL
$$

WIZ051-052-058>065-066-070>072-251600-
SOUTHEAST WISCONSIN

CITY           SKY/WX    TMP DP  RH WIND       PRES   REMARKS
MILWAUKEE      MOSUNNY   61  46  57 NW10      29.91R
WAUKESHA       SUNNY     57  46  67 W9        29.94R
MILWAUKEE/TIMM SUNNY     61  43  51 NW14G21   29.92S
RACINE         SUNNY     61  49  64 W12       29.93R
BURLINGTON     SUNNY     59  47  63 NW10G18   29.94R
KENOSHA        SUNNY     62  50  64 NW14      29.92R
FOND DU LAC    SUNNY     58  42  55 W15G23    29.91R
SHEBOYGAN      SUNNY     59  44  57 NW15G25   29.89R
WEST BEND      SUNNY     59  43  55 W14       29.91R
JUNEAU         SUNNY     57  45  63 W8        29.95R
$$

LSZ147-162-251600-
LAKE SUPERIOR

STATION/POSITION TIME  TEMP    WIND        PRES    WAVE
                       AIR SEA DIR/SP/G            HT/PER
                 (UTC) (F)     (DEG/KT/KT) (MB)    (FT/S)
W MID LAKE BUOY  1450   49 46  260/ 19/ 25 1008.1R   6/ 6
DEVILS ISLAND    1500   50     270/ 22/ 26 1011.3R
PORT WING        1400   51     260/ 15/ 23 1012.9R
SAXON HARBOR     1400   53      CALM  /  8 1011.5R
$$

LMZ867-665-643>646-251600-
LAKE MICHIGAN

STATION/POSITION TIME  TEMP    WIND        PRES    WAVE
                       AIR SEA DIR/SP/G            HT/PER
                 (UTC) (F)     (DEG/KT/KT) (MB)    (FT/S)
CHAMBERS ISLAND  1400   55     210/  7/ 13 1008.5R
N MID LAKE BUOY  1450   55 51  280/ 17/ 21 1007.0R   3/ 5
NORTHPORT PIER   1400   57     270/  6/ 15 1007.8S
ALGOMA LAKESHORE 1256          270/  8/ 12   N/A
KEWAUNEE LAKESHO 1500   59     290/ 14/ 19 1008.8F
SHEBOYGAN LAKESH 1500   59 51  290/ 18/ 20 1011.9R
PORT WASHINGTON  1400   59     290/  6/ 11 1012.9
ATWATER BUOY     1500   59     280/ 14/ 19 1013.9R
MILWAUKEE LAKESH 1500   60     290/ 10/ 14   N/A
S MID LAKE BUOY  1450   56 54  280/ 14/ 17 1012.1R   2/ 3
KENOSHA   LAKESH 1500   61     290/  9/ 14 1013.2R
$$

TC  - TEMPERATURE IN CELSIUS
VSB - VISIBILITY IN STATUTE MILES
WCI - WIND CHILL INDEX
HX  - HEAT INDEX




USA.gov is the U.S. government's official web portal to all federal, state and local government web resources and services.